Location: Consuma
(43.7833°N, 11.5833°E)
Time: 07:57:09
(UTC+00:00)

Cosmos 2084 - Pass Details

Date: 17 February 2020
Orbit: 568 x 614 km, 62.8° (Epoch: 10 April)

Event Time Altitude Azimuth Distance (km) Brightness Sun altitude
Rises 05:18:06 0° 210° (SSW) 2,864 6.7 -10.1°
Reaches altitude 10° 05:20:21 10° 209° (SSW) 1,966 5.9 -9.7°
Maximum altitude 05:24:48 73° 126° (SE) 646 3.8 -8.9°
Drops below altitude 10° 05:29:16 10° 41° (NE) 1,976 6.6 -8.1°
Sets 05:31:33 0° 40° (NE) 2,881 7.4 -7.7°
